Home > Weather > Skien > Past weeks

Flag for Norway Weather for the Past 2 Weeks in Skien, Norway

Now
50 °F

Sunny.


Feels Like: 45 °F
Forecast: 39 / 62 °F
Wind: 15 mph from South

Location: Torp

Current Time: May 5, 2016 at 8:32:20 PM

Latest Report: May 5, 2016 at 7:50 PM


Visibility: 10 mi

Pressure: 30.27 "Hg

Humidity: 62%

Dew Point: 37 °F

Location of SkienLocation

Historic Weather in Skien — Graph

°F

Skien Temperature Yesterday

Maximum temperature yesterday: 55 °F (at 2:20 PM)
Minimum temperature yesterday: 36 °F (at 4:50 AM)
Average temperature yesterday: 48 °F

High & Low Weather Summary for the Past Weeks

 TemperatureHumidityPressure
High59 °F (Apr 21, 2:50 PM)100% (Apr 24, 7:20 PM)30.33 "Hg (Apr 24, 7:20 PM)
Low30 °F (Apr 23, 5:20 AM)28% (Apr 21, 5:20 PM)29.59 "Hg (Apr 25, 3:20 PM)
Average42 °F73%29.95 "Hg
* Reported Apr 20 7:20 PM — May 5 7:20 PM, Skien, Weather by CustomWeather, © 2016

Note: Actual official high and low records may vary slightly from our data, if they occured in-between our weather recording intervals... More about our weather records

Advertising

Skien Weather History for the Previous 24 Hours

Scroll right to see more
 ConditionsComfort  
Time TempWeatherWind HumidityBarometerVisibility
7:20 PM
Thu, May 5
52 °FSunny.15 mph54%30.27 "Hg10 mi
6:50 PM52 °FSunny.15 mph54%30.30 "Hg10 mi
6:20 PM52 °FSunny.17 mph50%30.30 "Hg10 mi
5:50 PM54 °FSunny.16 mph47%30.30 "Hg10 mi
5:20 PM52 °FSunny.17 mph54%30.30 "Hg10 mi
4:50 PM54 °FSunny.16 mph51%30.30 "Hg10 mi
4:20 PM54 °FSunny.18 mph51%30.30 "Hg10 mi
3:50 PM54 °FSunny.20 mph54%30.33 "Hg10 mi
3:20 PM54 °FSunny.20 mph54%30.33 "Hg10 mi
2:50 PM54 °FSunny.21 mph54%30.33 "Hg10 mi
2:20 PM54 °FSunny.21 mph54%30.33 "Hg10 mi
1:50 PM54 °FSunny.20 mph58%30.33 "Hg10 mi
1:20 PM54 °FPassing clouds.18 mph63%30.33 "HgN/A
12:50 PM54 °FPassing clouds.17 mph67%30.33 "HgN/A
12:20 PM54 °FSunny.17 mph72%30.33 "Hg10 mi
11:50 AM54 °FSunny.15 mph77%30.33 "Hg10 mi
11:20 AM54 °FSunny.15 mph67%30.33 "Hg10 mi
10:50 AM52 °FSunny.15 mph72%30.33 "Hg10 mi
10:20 AM52 °FSunny.14 mph67%30.33 "Hg10 mi
9:50 AM54 °FSunny.14 mph58%30.33 "Hg10 mi
9:20 AM52 °FSunny.13 mph62%30.33 "Hg10 mi
8:50 AM50 °FSunny.9 mph67%30.33 "Hg10 mi
8:20 AM48 °FSunny.10 mph76%30.33 "Hg10 mi
7:50 AM46 °FSunny.9 mph82%30.33 "Hg10 mi
7:20 AM46 °FSunny.9 mph76%30.33 "Hg10 mi
6:50 AM45 °FSunny.7 mph81%30.33 "Hg10 mi
6:20 AM43 °FSunny.6 mph87%30.33 "Hg10 mi
5:50 AM43 °FClear.7 mph87%30.33 "Hg10 mi
5:20 AM43 °FOvercast.7 mph87%30.30 "HgN/A
4:50 AM41 °FPassing clouds.8 mph93%30.30 "HgN/A
4:20 AM43 °FOvercast.6 mph87%30.30 "HgN/A
3:50 AM43 °FPassing clouds.7 mph93%30.30 "HgN/A
3:20 AM43 °FOvercast.7 mph93%30.30 "HgN/A
2:50 AM43 °FQuite cool.7 mph93%30.30 "HgN/A
2:20 AM43 °FPassing clouds.7 mph93%30.30 "HgN/A
1:50 AM43 °FOvercast.8 mph93%30.30 "HgN/A
1:20 AM43 °FOvercast.8 mph93%30.30 "HgN/A
12:50 AM43 °FPassing clouds.5 mph87%30.30 "HgN/A
12:20 AM45 °FQuite cool.7 mph81%30.30 "HgN/A
11:50 PM
Wed, May 4
46 °FCool.7 mph76%30.30 "HgN/A
11:20 PM46 °FCool.8 mph76%30.30 "HgN/A
10:50 PM46 °FClear.7 mph76%30.30 "Hg10 mi
10:20 PM48 °FSunny.7 mph66%30.30 "Hg10 mi
9:50 PM48 °FSunny.8 mph66%30.27 "Hg10 mi
9:20 PM48 °FSunny.9 mph66%30.30 "Hg10 mi
8:50 PM50 °FSunny.9 mph62%30.27 "Hg10 mi
8:20 PM52 °FSunny.10 mph58%30.27 "Hg10 mi
Weather by CustomWeather, © 2016

See weather overviewHow to use our weather pages